Time,TemperatureF,DewpointF,PressureIn,WindDirection,WindDirectionDegrees,WindSpeedMPH,WindSpeedGustMPH,Humidity,HourlyPrecipIn,Conditions,Clouds,dailyrainin,SoftwareType,DateUTC
2013-06-13 00:01:00,73.6,69.5,29.91,SE,143,0.0,0.0,87,0.00,CLR,,0.00,WeatherDisplay:10.37,2013-06-13 04:01:00,
2013-06-13 00:02:00,73.5,69.4,29.91,SE,143,0.0,0.0,87,0.00,CLR,,0.00,WeatherDisplay:10.37,2013-06-13 04:02:00,
2013-06-13 00:07:00,73.4,69.3,29.90,SE,143,0.0,0.0,87,0.00,CLR,,0.00,WeatherDisplay:10.37,2013-06-13 04:07:00,
2013-06-13 00:12:00,73.3,69.5,29.91,SE,143,0.0,0.0,88,0.00,CLR,,0.00,WeatherDisplay:10.37,2013-06-13 04:12:00,
2013-06-13 00:17:00,73.1,69.3,29.91,SE,142,0.0,1.2,88,0.00,CLR,,0.00,WeatherDisplay:10.37,2013-06-13 04:17:00,
2013-06-13 00:22:00,72.9,69.5,29.90,South,175,0.0,0.0,89,0.00,CLR,,0.00,WeatherDisplay:10.37,2013-06-13 04:22:00,
2013-06-13 00:27:00,72.8,69.4,29.90,SW,225,0.0,1.0,89,0.00,CLR,,0.00,WeatherDisplay:10.37,2013-06-13 04:27:00,
2013-06-13 00:32:00,72.6,69.5,29.90,SW,227,0.0,0.0,90,0.00,CLR,,0.00,WeatherDisplay:10.37,2013-06-13 04:32:00,
2013-06-13 00:37:00,72.6,69.5,29.90,East,82,0.0,0.0,90,0.00,CLR,,0.00,WeatherDisplay:10.37,2013-06-13 04:37:00,
2013-06-13 00:42:00,72.6,69.5,29.90,SW,215,0.0,0.0,90,0.00,CLR,,0.00,WeatherDisplay:10.37,2013-06-13 04:42:00,
2013-06-13 00:47:00,72.7,69.6,29.90,SW,215,0.0,0.0,90,0.00,CLR,,0.00,WeatherDisplay:10.37,2013-06-13 04:47:00,
2013-06-13 00:52:00,72.9,69.8,29.90,SW,215,0.2,1.0,90,0.00,CLR,,0.00,WeatherDisplay:10.37,2013-06-13 04:52:00,
2013-06-13 00:57:00,74.4,70.9,29.90,SW,219,1.3,3.5,89,0.00,CLR,,0.00,WeatherDisplay:10.37,2013-06-13 04:57:00,
2013-06-13 01:02:00,75.9,71.4,29.90,West,278,0.6,3.5,86,0.00,CLR,,0.00,WeatherDisplay:10.37,2013-06-13 05:02:00,
2013-06-13 01:07:00,77.3,71.7,29.90,WSW,240,0.4,1.2,83,0.00,CLR,,0.00,WeatherDisplay:10.37,2013-06-13 05:07:00,
2013-06-13 01:12:00,78.2,71.9,29.90,West,260,0.6,3.5,81,0.00,CLR,,0.00,WeatherDisplay:10.37,2013-06-13 05:12:00,
2013-06-13 01:17:00,78.6,71.9,29.90,SW,228,0.1,0.0,80,0.00,CLR,,0.00,WeatherDisplay:10.37,2013-06-13 05:17:00,
2013-06-13 01:22:00,78.6,71.9,29.90,SSW,201,0.0,0.0,80,0.00,CLR,,0.00,WeatherDisplay:10.37,2013-06-13 05:22:00,
2013-06-13 01:27:00,78.7,72.0,29.90,SW,231,0.3,1.2,80,0.00,CLR,,0.00,WeatherDisplay:10.37,2013-06-13 05:27:00,
2013-06-13 01:32:00,78.7,72.0,29.90,WSW,238,0.1,1.0,80,0.00,CLR,,0.00,WeatherDisplay:10.37,2013-06-13 05:32:00,
2013-06-13 01:37:00,78.5,71.8,29.90,WSW,242,0.0,0.0,80,0.00,CLR,,0.00,WeatherDisplay:10.37,2013-06-13 05:37:00,
2013-06-13 01:42:00,78.6,71.9,29.90,West,264,0.0,1.2,80,0.00,CLR,,0.00,WeatherDisplay:10.37,2013-06-13 05:42:00,
2013-06-13 01:47:00,78.7,72.0,29.90,WSW,243,0.3,0.0,80,0.00,CLR,,0.00,WeatherDisplay:10.37,2013-06-13 05:47:00,
2013-06-13 01:52:00,79.3,72.2,29.90,SW,219,0.6,1.2,79,0.00,CLR,,0.00,WeatherDisplay:10.37,2013-06-13 05:52:00,
2013-06-13 01:57:00,79.4,72.3,29.90,WSW,252,0.2,1.2,79,0.00,CLR,,0.00,WeatherDisplay:10.37,2013-06-13 05:57:00,
2013-06-13 02:02:00,79.0,72.3,29.89,WSW,243,0.0,0.0,80,0.00,CLR,,0.00,WeatherDisplay:10.37,2013-06-13 06:02:00,
2013-06-13 02:07:00,78.6,71.9,29.89,WSW,243,0.0,0.0,80,0.00,CLR,,0.00,WeatherDisplay:10.37,2013-06-13 06:07:00,
2013-06-13 02:12:00,78.0,71.7,29.89,West,277,0.0,0.0,81,0.00,CLR,,0.00,WeatherDisplay:10.37,2013-06-13 06:12:00,
2013-06-13 02:17:00,77.9,72.0,29.88,WSW,239,0.4,1.2,82,0.00,CLR,,0.00,WeatherDisplay:10.37,2013-06-13 06:17:00,
2013-06-13 02:22:00,78.1,71.8,29.88,West,269,0.7,2.3,81,0.00,CLR,,0.00,WeatherDisplay:10.37,2013-06-13 06:22:00,
2013-06-13 02:27:00,78.3,71.6,29.88,WSW,242,0.8,2.0,80,0.00,CLR,,0.00,WeatherDisplay:10.37,2013-06-13 06:27:00,
2013-06-13 02:32:00,79.0,71.9,29.89,SW,229,0.7,3.5,79,0.00,CLR,,0.00,WeatherDisplay:10.37,2013-06-13 06:32:00,
2013-06-13 02:37:00,79.2,71.7,29.89,WSW,258,0.0,0.0,78,0.00,CLR,,0.00,WeatherDisplay:10.37,2013-06-13 06:37:00,
2013-06-13 02:42:00,79.4,71.6,29.88,SW,225,0.0,1.2,77,0.00,CLR,,0.00,WeatherDisplay:10.37,2013-06-13 06:42:00,
2013-06-13 02:47:00,79.6,71.8,29.88,SSE,162,1.8,4.6,77,0.00,CLR,,0.00,WeatherDisplay:10.37,2013-06-13 06:47:00,
2013-06-13 02:52:00,79.6,71.8,29.88,SW,235,0.0,0.0,77,0.00,CLR,,0.00,WeatherDisplay:10.37,2013-06-13 06:52:00,
2013-06-13 02:57:00,79.5,71.7,29.88,NW,326,0.0,1.2,77,0.00,CLR,,0.00,WeatherDisplay:10.37,2013-06-13 06:57:00,
2013-06-13 03:02:00,79.2,71.4,29.88,ENE,60,0.0,1.0,77,0.00,CLR,,0.00,WeatherDisplay:10.37,2013-06-13 07:02:00,
2013-06-13 03:07:00,79.0,71.9,29.88,SSW,212,0.0,1.2,79,0.00,CLR,,0.00,WeatherDisplay:10.37,2013-06-13 07:07:00,
2013-06-13 03:12:00,78.3,71.6,29.87,WSW,252,1.2,4.6,80,0.00,CLR,,0.00,WeatherDisplay:10.37,2013-06-13 07:12:00,
2013-06-13 03:17:00,78.0,71.3,29.87,East,98,0.1,1.2,80,0.00,CLR,,0.00,WeatherDisplay:10.37,2013-06-13 07:17:00,
2013-06-13 03:22:00,78.6,71.2,29.87,SW,235,0.3,2.3,78,0.00,CLR,,0.00,WeatherDisplay:10.37,2013-06-13 07:22:00,
2013-06-13 03:27:00,79.3,71.5,29.87,East,97,0.2,2.3,77,0.00,CLR,,0.00,WeatherDisplay:10.37,2013-06-13 07:27:00,
2013-06-13 03:32:00,79.7,71.1,29.86,SSW,207,3.6,4.6,75,0.00,CLR,,0.00,WeatherDisplay:10.37,2013-06-13 07:32:00,
2013-06-13 03:37:00,80.2,71.2,29.86,SW,232,1.0,3.5,74,0.00,CLR,,0.00,WeatherDisplay:10.37,2013-06-13 07:37:00,
2013-06-13 03:42:00,80.3,71.3,29.85,SSW,212,0.0,0.0,74,0.00,CLR,,0.00,WeatherDisplay:10.37,2013-06-13 07:42:00,
2013-06-13 03:47:00,80.1,71.1,29.85,West,259,0.0,1.2,74,0.00,CLR,,0.00,WeatherDisplay:10.37,2013-06-13 07:47:00,
2013-06-13 03:52:00,80.1,70.7,29.85,West,274,0.3,3.5,73,0.00,CLR,,0.00,WeatherDisplay:10.37,2013-06-13 07:52:00,
2013-06-13 03:57:00,80.2,70.8,29.85,West,264,1.0,2.3,73,0.00,CLR,,0.00,WeatherDisplay:10.37,2013-06-13 07:57:00,
2013-06-13 04:02:00,80.2,70.8,29.85,NNE,33,1.5,2.3,73,0.00,CLR,,0.00,WeatherDisplay:10.37,2013-06-13 08:02:00,
2013-06-13 04:07:00,79.8,70.4,29.85,North,360,0.3,1.2,73,0.00,CLR,,0.00,WeatherDisplay:10.37,2013-06-13 08:07:00,
2013-06-13 04:12:00,79.7,71.1,29.84,West,280,0.0,1.2,75,0.00,CLR,,0.00,WeatherDisplay:10.37,2013-06-13 08:12:00,
2013-06-13 04:17:00,79.6,69.4,29.84,SSE,148,2.4,8.1,71,0.00,CLR,,0.00,WeatherDisplay:10.37,2013-06-13 08:17:00,
2013-06-13 04:22:00,80.1,69.4,29.83,North,354,0.3,2.3,70,0.00,CLR,,0.00,WeatherDisplay:10.37,2013-06-13 08:22:00,
2013-06-13 04:27:00,80.0,69.7,29.83,West,276,0.7,1.2,71,0.00,CLR,,0.00,WeatherDisplay:10.37,2013-06-13 08:27:00,
2013-06-13 04:32:00,80.1,69.4,29.83,SSW,210,1.6,3.5,70,0.00,CLR,,0.00,WeatherDisplay:10.37,2013-06-13 08:32:00,
2013-06-13 04:37:00,80.2,69.5,29.82,SE,128,0.0,1.2,70,0.00,CLR,,0.00,WeatherDisplay:10.37,2013-06-13 08:37:00,
2013-06-13 04:42:00,80.0,69.3,29.83,North,352,0.1,3.5,70,0.00,CLR,,0.00,WeatherDisplay:10.37,2013-06-13 08:42:00,
2013-06-13 04:47:00,79.6,69.4,29.82,SW,225,1.3,2.3,71,0.00,CLR,,0.00,WeatherDisplay:10.37,2013-06-13 08:47:00,
2013-06-13 04:52:00,79.7,69.0,29.82,WSW,243,2.9,4.6,70,0.00,CLR,,0.00,WeatherDisplay:10.37,2013-06-13 08:52:00,
2013-06-13 04:57:00,79.9,69.2,29.82,WSW,253,2.6,5.0,70,0.00,CLR,,0.00,WeatherDisplay:10.37,2013-06-13 08:57:00,
2013-06-13 05:02:00,80.1,69.0,29.82,SW,229,0.7,3.5,69,0.00,CLR,,0.00,WeatherDisplay:10.37,2013-06-13 09:02:00,
2013-06-13 05:07:00,80.0,69.3,29.82,West,259,0.8,3.5,70,0.00,CLR,,0.00,WeatherDisplay:10.37,2013-06-13 09:07:00,
2013-06-13 05:12:00,79.8,69.1,29.82,West,276,2.7,3.5,70,0.00,CLR,,0.00,WeatherDisplay:10.37,2013-06-13 09:12:00,
2013-06-13 05:17:00,80.0,69.3,29.82,South,176,1.4,6.9,70,0.00,CLR,,0.00,WeatherDisplay:10.37,2013-06-13 09:17:00,
2013-06-13 05:22:00,80.1,69.4,29.82,WNW,293,1.2,4.6,70,0.00,CLR,,0.00,WeatherDisplay:10.37,2013-06-13 09:22:00,
2013-06-13 05:27:00,80.0,69.3,29.82,SE,129,2.4,5.0,70,0.00,CLR,,0.00,WeatherDisplay:10.37,2013-06-13 09:27:00,
2013-06-13 05:32:00,80.0,69.7,29.81,WSW,239,1.2,3.5,71,0.00,CLR,,0.00,WeatherDisplay:10.37,2013-06-13 09:32:00,
2013-06-13 05:37:00,79.9,69.7,29.81,SW,225,3.6,5.8,71,0.00,CLR,,0.00,WeatherDisplay:10.37,2013-06-13 09:37:00,
2013-06-13 05:42:00,79.9,69.2,29.81,SW,217,0.6,8.1,70,0.00,CLR,,0.00,WeatherDisplay:10.37,2013-06-13 09:42:00,
2013-06-13 05:47:00,79.9,69.2,29.81,WSW,258,7.5,12.7,70,0.00,CLR,,0.00,WeatherDisplay:10.37,2013-06-13 09:47:00,
2013-06-13 05:52:00,79.9,69.7,29.81,SW,226,2.9,9.2,71,0.00,CLR,,0.00,WeatherDisplay:10.37,2013-06-13 09:52:00,
2013-06-13 05:57:00,79.8,69.6,29.81,West,274,2.0,3.5,71,0.00,CLR,,0.00,WeatherDisplay:10.37,2013-06-13 09:57:00,
2013-06-13 06:02:00,79.6,69.8,29.80,WSW,251,3.6,9.2,72,0.00,CLR,,0.00,WeatherDisplay:10.37,2013-06-13 10:02:00,
2013-06-13 06:07:00,79.6,69.8,29.80,SW,219,1.2,3.5,72,0.00,CLR,,0.00,WeatherDisplay:10.37,2013-06-13 10:07:00,
2013-06-13 06:12:00,79.6,69.8,29.80,SW,232,2.1,4.6,72,0.00,CLR,,0.00,WeatherDisplay:10.37,2013-06-13 10:12:00,
2013-06-13 06:17:00,79.5,69.7,29.80,SSW,201,1.0,3.5,72,0.00,CLR,,0.00,WeatherDisplay:10.37,2013-06-13 10:17:00,
2013-06-13 06:22:00,79.4,69.6,29.80,WSW,245,2.1,6.9,72,0.00,CLR,,0.00,WeatherDisplay:10.37,2013-06-13 10:22:00,
2013-06-13 06:27:00,79.4,69.6,29.80,West,269,2.9,5.8,72,0.00,CLR,,0.00,WeatherDisplay:10.37,2013-06-13 10:27:00,
2013-06-13 06:32:00,79.4,69.6,29.80,SSW,212,3.2,6.9,72,0.00,CLR,,0.00,WeatherDisplay:10.37,2013-06-13 10:32:00,
2013-06-13 06:37:00,79.4,69.2,29.80,SSW,193,3.5,8.0,71,0.00,CLR,,0.00,WeatherDisplay:10.37,2013-06-13 10:37:00,
2013-06-13 06:42:00,79.5,69.3,29.80,SW,226,0.4,3.5,71,0.00,CLR,,0.00,WeatherDisplay:10.37,2013-06-13 10:42:00,
2013-06-13 06:47:00,79.5,68.9,29.79,SSW,204,5.3,10.4,70,0.00,CLR,,0.00,WeatherDisplay:10.37,2013-06-13 10:47:00,
2013-06-13 06:52:00,79.6,69.0,29.79,West,262,2.0,6.9,70,0.00,CLR,,0.00,WeatherDisplay:10.37,2013-06-13 10:52:00,
2013-06-13 06:57:00,79.6,69.0,29.79,SSW,198,3.3,8.1,70,0.00,CLR,,0.00,WeatherDisplay:10.37,2013-06-13 10:57:00,
2013-06-13 07:02:00,79.7,69.0,29.79,WSW,251,2.0,6.9,70,0.00,CLR,,0.00,WeatherDisplay:10.37,2013-06-13 11:02:00,
2013-06-13 07:07:00,79.6,69.0,29.79,NNW,340,1.8,3.5,70,0.00,CLR,,0.00,WeatherDisplay:10.37,2013-06-13 11:07:00,
2013-06-13 07:12:00,79.6,69.0,29.79,SW,228,6.1,11.5,70,0.00,CLR,,0.00,WeatherDisplay:10.37,2013-06-13 11:12:00,
2013-06-13 07:17:00,79.6,69.0,29.79,West,266,2.1,5.0,70,0.00,CLR,,0.00,WeatherDisplay:10.37,2013-06-13 11:17:00,
2013-06-13 07:22:00,79.5,68.9,29.78,SW,224,1.8,8.1,70,0.00,CLR,,0.00,WeatherDisplay:10.37,2013-06-13 11:22:00,
2013-06-13 07:27:00,79.5,68.9,29.79,West,263,1.7,5.0,70,0.00,CLR,,0.00,WeatherDisplay:10.37,2013-06-13 11:27:00,
2013-06-13 07:32:00,79.5,69.3,29.79,WSW,255,2.7,7.0,71,0.00,CLR,,0.00,WeatherDisplay:10.37,2013-06-13 11:32:00,
2013-06-13 07:37:00,79.6,69.0,29.79,WSW,250,4.6,6.0,70,0.00,CLR,,0.00,WeatherDisplay:10.37,2013-06-13 11:37:00,
2013-06-13 07:42:00,79.7,69.0,29.78,South,187,4.0,5.8,70,0.00,CLR,,0.00,WeatherDisplay:10.37,2013-06-13 11:42:00,
2013-06-13 07:47:00,79.8,68.7,29.79,West,278,7.2,10.4,69,0.00,CLR,,0.00,WeatherDisplay:10.37,2013-06-13 11:47:00,
2013-06-13 07:52:00,79.9,69.2,29.79,West,281,3.6,4.6,70,0.00,CLR,,0.00,WeatherDisplay:10.37,2013-06-13 11:52:00,
2013-06-13 07:57:00,79.9,68.8,29.79,NW,312,6.8,12.7,69,0.00,CLR,,0.00,WeatherDisplay:10.37,2013-06-13 11:57:00,
2013-06-13 08:02:00,80.0,68.9,29.78,WSW,248,4.8,8.1,69,0.00,CLR,,0.00,WeatherDisplay:10.37,2013-06-13 12:02:00,
2013-06-13 08:07:00,79.8,69.1,29.78,South,185,4.4,5.8,70,0.00,CLR,,0.00,WeatherDisplay:10.37,2013-06-13 12:07:00,
2013-06-13 08:12:00,79.8,69.6,29.78,SSE,167,2.3,4.6,71,0.00,CLR,,0.00,WeatherDisplay:10.37,2013-06-13 12:12:00,
2013-06-13 08:17:00,79.8,69.6,29.78,NNW,348,1.4,3.5,71,0.00,CLR,,0.00,WeatherDisplay:10.37,2013-06-13 12:17:00,
2013-06-13 08:22:00,79.7,69.0,29.78,SW,232,5.1,8.0,70,0.00,CLR,,0.00,WeatherDisplay:10.37,2013-06-13 12:22:00,
2013-06-13 08:27:00,79.8,69.1,29.78,West,269,6.8,11.5,70,0.00,CLR,,0.00,WeatherDisplay:10.37,2013-06-13 12:27:00,
2013-06-13 08:32:00,79.9,69.2,29.79,SW,228,3.7,11.5,70,0.00,CLR,,0.00,WeatherDisplay:10.37,2013-06-13 12:32:00,
2013-06-13 08:37:00,80.0,69.3,29.78,ENE,78,2.9,18.4,70,0.00,CLR,,0.00,WeatherDisplay:10.37,2013-06-13 12:37:00,
2013-06-13 08:42:00,80.1,69.8,29.78,WSW,248,1.2,3.5,71,0.00,CLR,,0.00,WeatherDisplay:10.37,2013-06-13 12:42:00,
2013-06-13 08:47:00,80.1,69.4,29.78,SSW,201,6.1,11.5,70,0.00,CLR,,0.00,WeatherDisplay:10.37,2013-06-13 12:47:00,
2013-06-13 08:52:00,80.2,69.5,29.78,West,273,1.5,5.8,70,0.00,CLR,,0.00,WeatherDisplay:10.37,2013-06-13 12:52:00,
2013-06-13 08:57:00,80.3,69.6,29.77,West,273,5.5,6.0,70,0.00,CLR,,0.00,WeatherDisplay:10.37,2013-06-13 12:57:00,
2013-06-13 09:02:00,80.5,69.8,29.77,West,269,7.0,8.1,70,0.00,CLR,,0.00,WeatherDisplay:10.37,2013-06-13 13:02:00,
2013-06-13 09:07:00,80.7,70.0,29.77,SSW,200,2.0,11.5,70,0.00,CLR,,0.00,WeatherDisplay:10.37,2013-06-13 13:07:00,
2013-06-13 09:12:00,80.7,69.6,29.77,West,259,6.0,11.5,69,0.00,CLR,,0.00,WeatherDisplay:10.37,2013-06-13 13:12:00,
2013-06-13 09:17:00,80.7,69.6,29.77,SW,215,5.1,7.0,69,0.00,CLR,,0.00,WeatherDisplay:10.37,2013-06-13 13:17:00,
2013-06-13 09:22:00,80.6,69.9,29.77,WSW,248,4.2,16.0,70,0.00,CLR,,0.00,WeatherDisplay:10.37,2013-06-13 13:22:00,
2013-06-13 09:27:00,80.6,69.9,29.77,WSW,255,4.6,5.0,70,0.00,CLR,,0.00,WeatherDisplay:10.37,2013-06-13 13:27:00,
2013-06-13 09:32:00,80.5,69.8,29.77,WNW,284,2.9,6.9,70,0.00,CLR,,0.00,WeatherDisplay:10.37,2013-06-13 13:32:00,
2013-06-13 09:37:00,80.5,69.8,29.77,West,261,1.0,4.6,70,0.00,CLR,,0.00,WeatherDisplay:10.37,2013-06-13 13:37:00,
2013-06-13 09:42:00,80.6,69.9,29.77,SW,222,3.5,7.0,70,0.00,CLR,,0.00,WeatherDisplay:10.37,2013-06-13 13:42:00,
2013-06-13 09:47:00,80.7,69.6,29.77,West,280,1.6,3.5,69,0.00,CLR,,0.00,WeatherDisplay:10.37,2013-06-13 13:47:00,
2013-06-13 09:52:00,80.9,69.8,29.77,SW,235,5.5,9.0,69,0.00,CLR,,0.00,WeatherDisplay:10.37,2013-06-13 13:52:00,
2013-06-13 09:57:00,81.1,69.5,29.76,ENE,78,1.7,4.6,68,0.00,CLR,,0.00,WeatherDisplay:10.37,2013-06-13 13:57:00,
2013-06-13 10:02:00,81.3,69.7,29.76,SSE,164,2.0,3.0,68,0.00,CLR,,0.00,WeatherDisplay:10.37,2013-06-13 14:02:00,
2013-06-13 10:07:00,81.4,69.4,29.76,SSW,197,3.2,8.1,67,0.00,CLR,,0.00,WeatherDisplay:10.37,2013-06-13 14:07:00,
2013-06-13 10:12:00,81.4,69.8,29.75,WNW,293,1.0,3.0,68,0.00,CLR,,0.00,WeatherDisplay:10.37,2013-06-13 14:12:00,
2013-06-13 10:17:00,81.3,69.7,29.75,South,177,3.8,7.0,68,0.00,SCT,,0.00,WeatherDisplay:10.37,2013-06-13 14:17:00,
2013-06-13 10:22:00,81.2,69.6,29.75,SW,233,3.6,4.6,68,0.00,SCT,,0.00,WeatherDisplay:10.37,2013-06-13 14:22:00,
2013-06-13 10:27:00,81.0,69.4,29.75,SSW,212,1.5,3.5,68,0.00,SCT,,0.00,WeatherDisplay:10.37,2013-06-13 14:27:00,
2013-06-13 10:32:00,81.0,69.4,29.75,SW,215,3.3,6.0,68,0.00,SCT,,0.00,WeatherDisplay:10.37,2013-06-13 14:32:00,
2013-06-13 10:37:00,81.1,69.5,29.75,WSW,249,3.5,9.0,68,0.00,SCT,,0.00,WeatherDisplay:10.37,2013-06-13 14:37:00,
2013-06-13 10:42:00,81.6,70.0,29.75,WSW,243,3.3,7.0,68,0.00,SCT,,0.00,WeatherDisplay:10.37,2013-06-13 14:42:00,
2013-06-13 10:47:00,82.0,70.4,29.74,SW,229,1.5,4.0,68,0.00,SCT,,0.00,WeatherDisplay:10.37,2013-06-13 14:47:00,
2013-06-13 10:52:00,82.1,69.6,29.74,SSW,205,7.1,9.2,66,0.00,SCT,,0.00,WeatherDisplay:10.37,2013-06-13 14:52:00,
2013-06-13 10:57:00,82.3,69.8,29.74,South,172,4.3,10.0,66,0.00,SCT,,0.00,WeatherDisplay:10.37,2013-06-13 14:57:00,
2013-06-13 11:02:00,82.5,70.0,29.74,SE,129,1.8,3.0,66,0.00,SCT,,0.00,WeatherDisplay:10.37,2013-06-13 15:02:00,
2013-06-13 11:07:00,82.8,70.3,29.73,WNW,297,1.9,5.8,66,0.00,SCT,,0.00,WeatherDisplay:10.37,2013-06-13 15:07:00,
2013-06-13 11:12:00,83.5,70.5,29.73,West,264,1.1,5.8,65,0.00,SCT,,0.00,WeatherDisplay:10.37,2013-06-13 15:12:00,
2013-06-13 11:17:00,84.1,70.1,29.73,East,98,4.1,18.4,63,0.00,FEW,,0.00,WeatherDisplay:10.37,2013-06-13 15:17:00,
2013-06-13 11:22:00,84.4,70.0,29.73,SW,231,2.8,6.0,62,0.00,FEW,,0.00,WeatherDisplay:10.37,2013-06-13 15:22:00,
2013-06-13 11:27:00,84.5,70.0,29.73,SE,124,3.2,8.1,62,0.00,FEW,,0.00,WeatherDisplay:10.37,2013-06-13 15:27:00,
2013-06-13 11:32:00,84.7,69.3,29.73,South,169,6.5,17.3,60,0.00,FEW,,0.00,WeatherDisplay:10.37,2013-06-13 15:32:00,
2013-06-13 11:37:00,84.6,70.1,29.73,SE,127,1.8,4.6,62,0.00,FEW,,0.00,WeatherDisplay:10.37,2013-06-13 15:37:00,
2013-06-13 11:42:00,84.8,70.3,29.73,SW,219,2.4,10.0,62,0.00,FEW,,0.00,WeatherDisplay:10.37,2013-06-13 15:42:00,
2013-06-13 11:47:00,85.0,70.0,29.72,West,271,2.4,3.5,61,0.00,FEW,,0.00,WeatherDisplay:10.37,2013-06-13 15:47:00,
2013-06-13 11:52:00,85.2,71.2,29.73,NW,309,2.0,3.5,63,0.00,FEW,,0.00,WeatherDisplay:10.37,2013-06-13 15:52:00,
2013-06-13 11:57:00,85.4,70.9,29.73,NE,37,2.3,3.5,62,0.00,FEW,,0.00,WeatherDisplay:10.37,2013-06-13 15:57:00,
2013-06-13 12:02:00,85.6,70.6,29.72,NW,319,5.0,9.0,61,0.00,FEW,,0.00,WeatherDisplay:10.37,2013-06-13 16:02:00,
2013-06-13 12:07:00,85.5,71.0,29.72,North,1,2.3,3.5,62,0.00,FEW,,0.00,WeatherDisplay:10.37,2013-06-13 16:07:00,
2013-06-13 12:12:00,86.0,70.5,29.72,West,276,4.8,11.5,60,0.00,FEW,,0.00,WeatherDisplay:10.37,2013-06-13 16:12:00,
2013-06-13 12:17:00,85.8,70.8,29.72,West,281,3.8,4.6,61,0.00,FEW,,0.00,WeatherDisplay:10.37,2013-06-13 16:17:00,
2013-06-13 12:22:00,85.8,70.3,29.72,WSW,249,4.3,8.1,60,0.00,FEW,,0.00,WeatherDisplay:10.37,2013-06-13 16:22:00,
2013-06-13 12:27:00,86.0,70.5,29.72,WSW,256,0.9,6.9,60,0.00,FEW,,0.00,WeatherDisplay:10.37,2013-06-13 16:27:00,
2013-06-13 12:32:00,86.3,70.3,29.72,West,274,4.4,9.2,59,0.00,FEW,,0.00,WeatherDisplay:10.37,2013-06-13 16:32:00,
2013-06-13 12:37:00,86.9,69.8,29.71,WSW,253,5.8,11.5,57,0.00,FEW,,0.00,WeatherDisplay:10.37,2013-06-13 16:37:00,
2013-06-13 12:42:00,87.1,70.0,29.71,North,11,4.7,10.4,57,0.00,FEW,,0.00,WeatherDisplay:10.37,2013-06-13 16:42:00,
2013-06-13 12:47:00,87.2,69.6,29.71,SW,221,8.1,10.4,56,0.00,FEW,,0.00,WeatherDisplay:10.37,2013-06-13 16:47:00,
2013-06-13 12:52:00,87.1,70.0,29.71,SW,231,2.8,10.4,57,0.00,FEW,,0.00,WeatherDisplay:10.37,2013-06-13 16:52:00,
2013-06-13 12:57:00,87.5,70.9,29.70,SW,215,2.3,10.4,58,0.00,FEW,,0.00,WeatherDisplay:10.37,2013-06-13 16:57:00,
2013-06-13 13:02:00,88.0,70.9,29.70,South,190,5.8,11.5,57,0.00,FEW,,0.00,WeatherDisplay:10.37,2013-06-13 17:02:00,
2013-06-13 13:07:00,88.1,70.4,29.70,WSW,252,6.9,9.2,56,0.00,FEW,,0.00,WeatherDisplay:10.37,2013-06-13 17:07:00,
2013-06-13 13:12:00,88.2,69.5,29.69,West,273,10.2,13.8,54,0.00,FEW,,0.00,WeatherDisplay:10.37,2013-06-13 17:12:00,
2013-06-13 13:17:00,88.4,70.7,29.68,West,281,7.1,12.7,56,0.00,FEW,,0.00,WeatherDisplay:10.37,2013-06-13 17:17:00,
2013-06-13 13:22:00,88.6,69.8,29.67,West,274,7.8,15.0,54,0.00,FEW,,0.00,WeatherDisplay:10.37,2013-06-13 17:22:00,
2013-06-13 13:27:00,88.8,70.5,29.66,ESE,116,2.4,8.0,55,0.00,FEW,,0.00,WeatherDisplay:10.37,2013-06-13 17:27:00,
2013-06-13 13:32:00,89.0,69.6,29.67,WSW,252,6.4,11.0,53,0.00,FEW,,0.00,WeatherDisplay:10.37,2013-06-13 17:32:00,
2013-06-13 13:37:00,89.1,69.7,29.66,WNW,302,7.2,13.8,53,0.00,FEW,,0.00,WeatherDisplay:10.37,2013-06-13 17:37:00,
2013-06-13 13:42:00,89.2,69.3,29.65,WNW,297,6.3,12.7,52,0.00,FEW,,0.00,WeatherDisplay:10.37,2013-06-13 17:42:00,
2013-06-13 13:47:00,88.9,69.6,29.66,WNW,301,3.6,11.5,53,0.00,FEW,,0.00,WeatherDisplay:10.37,2013-06-13 17:47:00,
2013-06-13 13:52:00,89.2,69.8,29.66,West,261,4.0,9.0,53,0.00,FEW,,0.00,WeatherDisplay:10.37,2013-06-13 17:52:00,
2013-06-13 13:57:00,89.1,69.2,29.66,SSW,210,6.4,18.4,52,0.00,FEW,,0.00,WeatherDisplay:10.37,2013-06-13 17:57:00,
2013-06-13 14:02:00,89.3,68.8,29.67,SSW,204,8.4,12.7,51,0.00,FEW,,0.00,WeatherDisplay:10.37,2013-06-13 18:02:00,
2013-06-13 14:07:00,89.6,69.6,29.67,WSW,243,2.5,17.3,52,0.00,FEW,,0.00,WeatherDisplay:10.37,2013-06-13 18:07:00,
2013-06-13 14:12:00,89.6,70.2,29.66,NE,38,8.6,10.0,53,0.00,FEW,,0.00,WeatherDisplay:10.37,2013-06-13 18:12:00,
2013-06-13 14:17:00,89.3,68.8,29.65,SSW,210,13.7,19.6,51,0.00,FEW,,0.00,WeatherDisplay:10.37,2013-06-13 18:17:00,
2013-06-13 14:22:00,89.3,68.8,29.66,WSW,241,7.0,22.0,51,0.00,FEW,,0.00,WeatherDisplay:10.37,2013-06-13 18:22:00,
2013-06-13 14:27:00,89.1,68.6,29.70,WSW,243,10.2,12.0,51,0.00,FEW,,0.00,WeatherDisplay:10.37,2013-06-13 18:27:00,